Dewpoint
57 57 59 60 58 63 65 64 66 67 72 73 73 73 74 75 75 74 72 75 73 72 72 74 76 75 76 75 76 75 77 76 75
57 60 61 59 63 62 65 65 65 70 72 72 72 72 74 75 75 75 76 76 70 73 76 73 75 75 75 75 75 76 77 75 76
56 57 62 61 61 62 62 63 63 69 71 72 71 71 72 72 73 75 76 77 75 75 74 71 70 74 75 74 75 77 77 75 74
55 53 56 61 63 63 63 63 66 68 69 71 70 70 71 72 71 72 74 74 75 76 72 69 74 75 75 75 75 76 76 76 75
58 57 58 61 62 63 65 68 68 68 69 68 70 71 71 72 72 72 71 73 74 75 75 74 75 76 77 76 76 75 76 75 73
59 58 59 60 60 66 68 69 67 68 66 71 71 72 72 71 72 72 73 73 73 75 76 77 74 75 76 76 76 75 75 76 75
60 61 62 60 65 67 65 67 71 72 72 73 75 73 73 73 74 72 71 73 74 74 76 75 75 75 75 76 74 75 75 75 74
61 62 64 65 66 68 70 71 71 71 71 69 69 70 70 73 73 72 74 73 73 75 74 75 75 74 74 75 72 67 68 71 72
64 62 63 65 66 67 68 69 70 69 69 69 69 69 70 71 72 73 71 71 71 74 75 75 75 74 73 71 64 61 62 68 72
64 64 66 66 67 68 69 68 69 68 68 69 69 70 70 71 71 70 71 70 71 70 73 74 73 72 70 65 60 55 58 64 71
62 63 64 64 65 66 69 70 67 68 69 70 70 70 70 70 69 68 67 67 68 69 70 71 69 68 66 62 53 53 56 62 74
62 62 62 61 60 62 62 65 68 69 68 68 68 68 68 68 68 67 66 66 66 68 67 65 64 62 58 58 50 51 53 64 74
60 59 59 59 57 57 59 61 62 62 61 60 61 63 65 66 66 67 68 67 67 67 65 62 60 57 55 53 47 48 50 58 66
57 57 56 56 56 56 56 57 57 56 58 57 58 60 60 64 64 64 65 66 66 64 62 60 59 56 54 50 50 44 47 48 53
55 53 54 54 54 54 55 55 55 54 55 57 58 58 59 60 61 62 64 62 62 62 61 59 58 57 56 53 48 47 47 47 48
54 52 51 52 53 54 55 55 55 55 57 58 58 58 59 58 60 61 63 62 62 59 59 57 57 57 55 53 51 49 45 46 46
54 54 52 52 51 53 54 55 55 55 57 59 58 57 58 58 58 52 48 51 58 50 49 58 60 57 56 53 48 42 41 43 47
56 55 53 52 52 52 53 54 55 57 57 58 57 57 58 56 56 54 48 39 42 42 37 38 50 47 44 46 44 35 37 38 39
53 54 55 53 53 52 51 51 53 54 57 58 56 56 54 55 58 56 53 46 36 39 39 38 38 38 39 34 38 38 38 37 38
53 53 52 52 52 54 53 53 52 53 52 51 53 52 55 49 48 46 47 43 38 32 35 39 38 37 37 37 36 36 36 36 37
Lifted_Index
-1 -1 -1 -1 -1 -1 -2 -2 -2 -3 -4 -4 -4 -4 -4 -4 -4 -4 -4 -3 -3 -3 -4 -5 -5 -5 -5 -5 -5 -5 -5 -5 -5
-2 -1 -1 -1 -2 -2 -1 -1 -2 -3 -4 -4 -4 -4 -4 -4 -4 -4 -4 -4 -3 -3 -4 -4 -4 -5 -5 -5 -5 -5 -5 -5 -5
-2 -1 -1 -1 -2 -1 -1 -1 -2 -3 -4 -4 -4 -4 -4 -4 -4 -4 -4 -4 -4 -4 -3 -2 -3 -4 -5 -5 -4 -4 -5 -4 -4
-2 -2 -2 -2 -2 -1 -1 -2 -3 -3 -4 -4 -4 -3 -3 -3 -4 -4 -4 -4 -4 -4 -3 -3 -3 -4 -5 -5 -5 -4 -4 -4 -4
-3 -3 -3 -3 -2 -2 -3 -3 -3 -3 -3 -3 -3 -3 -3 -3 -3 -3 -3 -4 -4 -4 -4 -4 -5 -5 -5 -5 -5 -4 -4 -4 -4
-4 -3 -3 -3 -3 -3 -3 -3 -3 -3 -2 -3 -3 -3 -3 -4 -4 -3 -3 -3 -3 -4 -4 -5 -5 -5 -5 -5 -5 -4 -5 -5 -5
-3 -3 -3 -3 -4 -4 -3 -3 -4 -4 -4 -4 -4 -3 -3 -3 -3 -3 -3 -3 -3 -4 -4 -4 -4 -4 -5 -5 -4 -4 -4 -5 -5
-4 -4 -3 -3 -4 -4 -4 -5 -5 -4 -4 -3 -3 -3 -3 -3 -3 -3 -3 -3 -3 -3 -3 -4 -4 -4 -4 -4 -4 -4 -3 -4 -4
-5 -4 -4 -4 -4 -5 -5 -5 -5 -4 -3 -2 -2 -2 -2 -2 -2 -2 -2 -3 -3 -3 -3 -3 -3 -3 -3 -3 -3 -2 -2 -2 -3
-6 -5 -4 -4 -4 -5 -5 -5 -4 -3 -3 -2 -2 -2 -2 -2 -2 -1 -1 -2 -2 -2 -2 -2 -3 -3 -2 -2 -1 -1 -1 -1 -2
-5 -5 -4 -4 -5 -5 -5 -5 -4 -3 -3 -2 -2 -2 -3 -2 -1 -1 -0 -1 -1 -1 -1 -2 -2 -1 -1 -0 -0 -0 -0 -1 -2
-5 -4 -4 -4 -4 -4 -5 -4 -4 -3 -3 -2 -2 -2 -2 -2 -1 -0 0 0 -0 -0 -0 -0 0 1 1 1 1 1 0 -1 -2
-4 -4 -3 -3 -3 -4 -4 -4 -4 -3 -3 -2 -2 -2 -2 -1 -1 -0 0 0 0 1 1 1 2 2 2 2 2 1 1 -1 -1
-3 -3 -2 -2 -2 -3 -3 -3 -3 -3 -2 -1 -1 -1 -1 -1 -1 -1 -0 -0 0 1 1 2 2 2 2 2 2 2 1 1 1
-2 -2 -2 -2 -2 -2 -2 -2 -2 -2 -1 -1 -1 -1 -1 -1 -1 -0 -0 -0 -0 1 1 1 1 1 1 1 1 2 2 2 2
-2 -2 -2 -1 -2 -1 -1 -1 -0 -0 0 0 -0 -0 -1 -1 -0 1 1 1 1 1 1 1 2 2 2 2 3 3 4 5 5
-2 -1 -1 -1 -0 -0 1 2 2 2 2 3 2 2 2 2 2 3 3 3 2 2 2 2 3 3 4 5 6 7 8 9 10
-1 -1 0 1 2 3 4 5 6 5 5 5 5 5 5 5 5 6 6 5 5 4 4 4 5 6 7 8 10 12 13 13 14
-0 0 2 3 4 5 6 7 7 7 6 6 6 7 7 7 7 8 8 8 8 8 7 7 7 8 10 11 13 15 16 16 16
-0 1 3 4 5 6 6 7 7 7 7 7 7 7 8 8 8 9 10 10 10 10 9 9 9 11 12 14 15 16 16 16 15